[Iaude] MPEC U26: 2016 TF93 [a=2.46,e=0.51,i=12.4,H=18.0]

mpec at si.edu mpec at si.edu
Thu Oct 20 20:30:14 EDT 2016


M.P.E.C. 2016-U26                                Issued 2016 Oct. 21, 00:21 UT
 
     The Minor Planet Electronic Circulars contain information on unusual
         minor planets and routine data on comets.  They are published
    on behalf of Division F of the International Astronomical Union by the
          Minor Planet Center, Smithsonian Astrophysical Observatory,
                          Cambridge, MA 02138, U.S.A.

             Prepared using the Tamkin Foundation Computer Network

                              MPC at CFA.HARVARD.EDU
            URL http://www.minorplanetcenter.net/    ISSN 1523-6714


                                   2016 TF93
 
Observations:
     K16T93F  C2016 07 30.60113 00 58 59.005-06 30 58.59         22.5 wLEU026F51
     K16T93F  C2016 07 30.60893 00 58 59.172-06 31 00.93         22.9 wLEU026F51
     K16T93F  C2016 08 03.55032 01 00 29.245-06 50 41.96         22.6 wLEU026F51
     K16T93F  C2016 08 03.56174 01 00 29.466-06 50 46.12         23.8 wLEU026F51
     K16T93F  C2016 08 03.57315 01 00 29.681-06 50 49.48         22.8 wLEU026F51
     K16T93F  C2016 08 03.58459 01 00 29.880-06 50 52.88         22.0 wLEU026F51
     K16T93F  C2016 08 12.57810 01 02 39.311-07 47 44.31         22.9 wLEU026F51
     K16T93F  C2016 08 12.58943 01 02 39.381-07 47 49.32         22.8 wLEU026F51
     K16T93F  C2016 08 12.60076 01 02 39.465-07 47 54.14         22.0 wLEU026F51
     K16T93F  C2016 08 30.51613 01 00 53.780-10 30 08.85         21.9 wLEU026F51
     K16T93F  C2016 08 30.52872 01 00 53.487-10 30 16.93         21.8 wLEU026F51
     K16T93F  C2016 08 30.54128 01 00 53.189-10 30 25.11         21.8 wLEU026F51
     K16T93F  C2016 09 08.48547 00 56 36.308-12 12 11.69         21.5 wLEU026F51
     K16T93F  C2016 09 08.49649 00 56 35.887-12 12 19.52         21.6 wLEU026F51
     K16T93F  C2016 09 08.50748 00 56 35.455-12 12 27.37         21.3 wLEU026F51
     K16T93F  C2016 09 08.51849 00 56 35.024-12 12 35.26         21.3 wLEU026F51
     K16T93F* C2016 10 09.40970 00 27 19.691-18 06 52.89         20.9 iLEU026F51
     K16T93F  C2016 10 09.42073 00 27 18.900-18 06 58.74         20.8 iLEU026F51
     K16T93F  C2016 10 09.43172 00 27 18.129-18 07 04.56         20.8 iLEU026F51
     K16T93F  C2016 10 09.44270 00 27 17.355-18 07 10.36         20.8 iLEU026F51
     K16T93F |C2016 10 10.24140 00 26 23.29 -18 14 06.6          21.2 VuEU026807
     K16T93F |C2016 10 10.24511 00 26 23.05 -18 14 08.3          20.9 VuEU026807
     K16T93F |C2016 10 10.24874 00 26 22.80 -18 14 10.3          20.9 VuEU026807
     K16T93F  C2016 10 10.25486 00 26 22.59 -18 14 20.0          20.5 RoEU026926
     K16T93F  C2016 10 10.27193 00 26 21.44 -18 14 28.7          20.4 RoEU026926
     K16T93F  C2016 10 10.28793 00 26 20.30 -18 14 37.7          20.7 RoEU026926
     K16T93F _C2016 10 10.36301200 26 15.398-18 15 15.64         20.7 RUEU026568
     K16T93F _C2016 10 10.36404600 26 15.315-18 15 16.11         20.7 RUEU026568
     K16T93F _C2016 10 10.36508100 26 15.241-18 15 16.65         20.7 RUEU026568
 
Observer details:
568 Mauna Kea.  Observers R. J. Wainscoat, R. Weryk, C. Wipper.  Measurers
    M. Micheli, R. Weryk.  3.6-m Canada-France-Hawaii Telescope + CCD.
807 Cerro Tololo.  Observers T. Linder, R. Holmes.  0.61-m f/6.5 astrograph
    + CCD.
926 Tenagra II Observatory.  Observers M. Schwartz, P. R. Holvorcem.  Measurer
    M. Schwartz.  0.81-m f/7 Ritchey-Chretien + CCD.
F51 Pan-STARRS 1, Haleakala.  Observers B. Gibson, T. Goggia, N. Primak,
    A. Schultz, M. Willman, S. Kahale.  Measurers K. Chambers, S. Chastel,
    L. Denneau, H. Flewelling, M. Huber, E. Lilly, E. Magnier, R. Wainscoat,
    C. Waters, R. Weryk.  1.8-m Ritchey-Chretien + CCD.
 
Orbital elements:
2016 TF93                                                Earth MOID = 0.2298 AU
Epoch 2016 July 31.0 TT = JDT 2457600.5                 MPC
M 290.92467              (2000.0)            P               Q
n   0.25489361     Peri.  354.28501     -0.47697097     -0.86075112
a   2.4635616      Node   124.07751     +0.81465598     -0.50888092
e   0.5069943      Incl.   12.39435     +0.32990048     +0.01215394
P   3.87           H   18.0           G   0.15           U   4
Residuals in seconds of arc
160730 F51  0.2+  0.1-    160830 F51  0.1-  0.1+    161010 807  0.0   0.2-
160730 F51  0.0   0.3-    160830 F51  0.2-  0.0     161010 807  0.3+  0.0
160803 F51  0.1-  0.2+    160908 F51  0.0   0.1-    161010 807  0.3+  0.1-
160803 F51  0.0   0.3-    160908 F51  0.1+  0.0     161010 926  0.5-  0.1+
160803 F51  0.0   0.0     160908 F51  0.0   0.0     161010 926  0.2+  0.3+
160803 F51  0.2-  0.4+    160908 F51  0.0   0.0     161010 926  0.1-  0.4-
160812 F51  0.1+  0.0     161009 F51  0.1+  0.0     161010 568  0.4+  0.3-
160812 F51  0.1+  0.0     161009 F51  0.1-  0.0     161010 568  0.2+  0.3-
160812 F51  0.3+  0.1+    161009 F51  0.1-  0.1+    161010 568  0.2+  0.3-
160830 F51  0.0   0.1+    161009 F51  0.1-  0.1+

Ephemeris:
2016 TF93                a,e,i = 2.46, 0.51, 12                  q = 1.2145
Date    TT    R. A. (2000) Decl.     Delta      r     Elong.  Phase     V
2016 09 21    00 46 55.5 -14 45 05   1.3781  2.3493   160.7     8.1    21.1
...
2016 10 06    00 31 10.6 -17 34 43   1.3069  2.2609   157.0    10.0    21.0
...
2016 10 14    00 22 12.0 -18 44 33   1.2926  2.2128   149.9    13.1    21.0
...
2016 10 20    00 15 47.8 -19 23 16   1.2916  2.1763   143.8    15.7    21.1
2016 10 21    00 14 46.9 -19 28 28   1.2922  2.1701   142.8    16.1    21.1
2016 10 22    00 13 47.1 -19 33 19   1.2929  2.1640   141.7    16.5    21.1
...
2016 10 28    00 08 16.0 -19 54 29   1.3016  2.1270   135.4    19.1    21.2
...
2016 11 05    00 02 26.9 -20 01 38   1.3225  2.0771   127.1    22.4    21.3
...
2016 11 20    23 57 25.9 -19 15 06   1.3813  1.9823   112.5    27.4    21.4

A. U. Tomatic                (C) Copyright 2016 MPC           M.P.E.C. 2016-U26




More information about the Iaude mailing list